Regional Weather Roundup
Issued by NWS

Home | Current Version | Previous Version | Graphics & Text | Print | Product List | Glossary On
Versions: 1 2 3 4 5 6 7 8 9 10 11 12 13 14 15 16 17 18 19 20 21 22 23 24 25 26 27 28 29 30 31 32 33 34 35 36 37 38 39 40 41 42 43 44 45 46 47 48 49 50
000
ASUS43 KMKX 250959
RWRWI

WISCONSIN REGIONAL WEATHER ROUNDUP
NATIONAL WEATHER SERVICE MILWAUKEE/SULLIVAN WI
500 AM CDT WED APR 25 2018

NOTE: "FAIR" INDICATES FEW OR NO CLOUDS BELOW 12,000 FEET WITH NO
SIGNIFICANT WEATHER AND/OR OBSTRUCTIONS TO VISIBILITY.

WIZ001-002-006>008-014>016-023>028-251100-
NORTHWEST WISCONSIN

CITY           SKY/WX    TMP DP  RH WIND       PRES   REMARKS
SUPERIOR ARPT  FAIR      27  23  84 CALM      30.29R
ASHLAND        FAIR      26  24  92 CALM      30.26S
HAYWARD        FAIR      26  22  84 CALM      30.25R
SIREN          FAIR      30  22  73 N3        30.26S
CUMBERLAND     FAIR      32  23  69 N6        30.24S WCI  26
RICE LAKE      FAIR      33  26  76 N3        30.25S
CHETEK         FAIR      31  27  85 N3        30.24R
LADYSMITH      FAIR      30  25  82 N5        30.23S WCI  25
EAU CLAIRE     NOT AVBL
MENOMONIE      FAIR      35  27  70 NW3       30.23S
NEW RICHMOND   FAIR      33  24  70 N7        30.24S WCI  27
OSCEOLA        FAIR      34  25  71 N5        30.28F WCI  30
$$

WIZ003>005-009-010-017-018-251100-
NORTH CENTRAL WISCONSIN

CITY           SKY/WX    TMP DP  RH WIND       PRES   REMARKS
MANITOWISH WTR FAIR      27  27 100 CALM      30.20S
ARBOR VITAE    FAIR      29  27  92 CALM      30.19S
WOODRUFF       FAIR      29  27  92 CALM      30.19S
RHINELANDER    FAIR      30  28  92 N3        30.18S
EAGLE RIVER    FAIR      28  27  94 CALM      30.17F
LAND O LAKES   FAIR      27  25  94 CALM      30.20S
PHILLIPS       FAIR      28  27  96 N5        30.20S WCI  23
TOMAHAWK       FAIR      28  28  96 N3        30.19S
MEDFORD        FAIR      31  29  94 N7        30.18S WCI  24
MERRILL        FAIR      31  31 100 CALM      30.19S
$$

WIZ029-030-035-036-043>047-251100-
CENTRAL WISCONSIN

CITY           SKY/WX    TMP DP  RH WIND       PRES   REMARKS
WAUSAU         FAIR      33  30  88 N8        30.16R WCI  26
MOSINEE        FAIR      34  32  93 N9        30.18R WCI  26
MARSHFIELD     FAIR      35  32  88 N8        30.16R WCI  29
STEVENS POINT  FAIR      33  33 100 N5        30.17R WCI  28
WAUPACA        FAIR      39  35  83 N6        30.16S
WAUTOMA        FAIR      38  34  85 N3        30.16R
WISC RAPIDS    FAIR      36  32  85 N8        30.18R WCI  30
CAMP DOUGLAS   NOT AVBL
$$

WIZ011>013-019>022-031-037>040-048>050-251100-
NORTHEAST WISCONSIN

CITY           SKY/WX    TMP DP  RH WIND       PRES   REMARKS
ANTIGO         FAIR      31  28  92 N8        30.17R WCI  23
SHAWANO        FAIR      37  33  84 N7        30.16S WCI  32
OCONTO         FAIR      36  31  85 N8        30.15S WCI  29
STURGEON BAY   FAIR      35  30  82 N12       30.14S WCI  27
GREEN BAY      FAIR      38  33  82 N12       30.14S WCI  30
MANITOWOC      FAIR      38  35  89 N10       30.12S WCI  31
APPLETON       FAIR      37  32  81 N12       30.12S WCI  30
CLINTONVILLE   FAIR      37  32  82 N8        30.16R WCI  31
OSHKOSH        FAIR      39  35  86 N10       30.14R WCI  32
$$

WIZ032>034-041-042-053>061-251100-
SOUTHWEST WISCONSIN

CITY           SKY/WX    TMP DP  RH WIND       PRES   REMARKS
LA CROSSE      FAIR      40  34  79 NW7       30.19R
SPARTA         FAIR      37  34  92 N3        30.19R
VIROQUA        FAIR      36  36  98 N7        30.16S WCI  31
BOSCOBEL       FAIR      38  32  79 CALM      30.16R
PRAIRIE DU CHI FAIR      46  33  61 N9        30.16R
PLATTEVILLE    FAIR      41  33  73 N5        30.14R
$$

WIZ056-057-062-063-064-067-068-251100-
SOUTH CENTRAL WISCONSIN

CITY           SKY/WX    TMP DP  RH WIND       PRES   REMARKS
REEDSBURG      FAIR      41  37  83 N8        30.15S
BARABOO/DELLS  FAIR      41  36  80 N6        30.14S
LONE ROCK      NOT AVBL
MINERAL POINT  FAIR      43  32  65 N6        30.13R
MADISON        FAIR      40  30  67 N5        30.13R
MIDDLETON      FAIR      39  32  75 CALM      30.14R
WATERTOWN      FAIR      41  32  72 N6        30.11S
MONROE         FAIR      43  30  61 N14       30.11R
JANESVILLE     FAIR      45  32  61 NE6       30.11R
$$

WIZ051-052-058>065-066-070>072-251100-
SOUTHEAST WISCONSIN

CITY           SKY/WX    TMP DP  RH WIND       PRES   REMARKS
MILWAUKEE      FAIR      42  34  73 N21G31    30.10R
WAUKESHA       FAIR      37  32  81 N9        30.12R WCI  31
MILWAUKEE/TIMM FAIR      39  32  75 N12       30.11S WCI  32
RACINE         FAIR      39  34  82 N20G26    30.11R WCI  29
BURLINGTON     FAIR      41  33  72 N7        30.10R
KENOSHA        FAIR      41  32  70 N15       30.09R
FOND DU LAC    MOCLDY    41  35  79 N9        30.13S
SHEBOYGAN      CLOUDY    40  36  86 N8        30.11S WCI  34
WEST BEND      FAIR      37  34  87 CALM      30.11S
JUNEAU         FAIR      40  34  81 N8        30.13R WCI  34
$$

LSZ147-162-251100-
LAKE SUPERIOR

STATION/POSITION TIME  TEMP    WIND        PRES    WAVE
                       AIR SEA DIR/SP/G            HT/PER
                 (UTC) (F)     (DEG/KT/KT) (MB)    (FT/S)
DEVILS ISLAND    0900   35     350/ 11/ 12 1025.9S
SAXON HARBOR     0940   27     200/  2/  3 1024.0S
$$

LMZ867-665-643>646-251100-
LAKE MICHIGAN

STATION/POSITION TIME  TEMP    WIND        PRES    WAVE
                       AIR SEA DIR/SP/G            HT/PER
                 (UTC) (F)     (DEG/KT/KT) (MB)    (FT/S)
NORTHPORT PIER   0940   35                 1020.3R
KEWAUNEE LAKESHO 0930   39     340/ 11/ 15 1019.1S
SHEBOYGAN LAKESH 0900   39      10/ 14/ 16 1020.0F
PORT WASHINGTON  0940   40     360/  4/  7 1020.7S
MILWAUKEE LAKESH 0930   41     360/ 18/ 22   N/A
KENOSHA   LAKESH 0900   42                 1017.9
$$

TC  - TEMPERATURE IN CELSIUS
VSB - VISIBILITY IN STATUTE MILES
WCI - WIND CHILL INDEX
HX  - HEAT INDEX





USA.gov is the U.S. government's official web portal to all federal, state and local government web resources and services.